User: anonymous
Location: Columbia
(38.9520°N, 92.3340°W)
Time: 19:33:24
(UTC-05:00)
Language:

Cosmos 158 Rocket - Orbit

View from above orbital plane
View from above orbital plane
View from above satellite
View from above satellite

Ground track
Ground track

The orbit data is extracted from the following two-line orbital elements,

1 02802U 67045B   14209.47542924  .00000132  00000-0  46324-4 0  5194
2 02802 074.0148 329.6017 0068062 277.8026 081.5407 14.43208943476796
Epoch (UTC): 28 July 2014 11:24:37
Eccentricity: 0.0068062
inclination: 74.0148°
perigee height: 699 km
apogee height: 796 km
right ascension of ascending node: 329.6017°
argument of perigee: 277.8026°
revolutions per day: 14.43208943
mean anomaly at epoch: 81.5407°
orbit number at epoch: 47679

The dashed part of the orbit path shows where the satellite is in the earth's shadow,  

DLR